Wind_Speed
22 23 24 23 22 22 23 23 22 22 22 23 24 25 25 26 25 26 26 26 26 26 25 26 27 26 26 25 25 26 25 24 25 24 25 25 25 27 27 26 24 18 21 30 31 31 32 28 28 31 30 32 36 36 35 36 37 39 38 38 39 38 35
23 23 23 23 23 23 23 23 22 22 23 24 25 26 27 26 26 27 27 27 27 26 26 26 27 26 26 25 26 26 25 25 26 25 27 27 26 28 29 26 25 23 21 27 31 30 31 28 27 31 31 30 34 35 35 35 35 36 36 35 34 34 34
23 24 23 23 24 24 23 23 23 23 24 25 27 28 28 28 27 27 27 28 27 27 26 26 27 27 26 25 26 27 26 26 27 27 27 28 27 28 30 28 27 26 24 27 31 30 29 27 26 29 30 28 31 33 33 33 34 34 34 35 34 35 36
23 23 23 24 24 24 23 23 24 25 26 27 28 28 28 28 28 28 28 29 28 28 27 27 27 27 26 26 26 27 27 27 28 28 27 28 28 27 29 28 26 26 26 27 30 30 28 26 24 27 28 27 30 33 32 32 34 34 35 37 37 36 36
24 23 23 24 24 23 23 24 26 27 28 29 28 28 29 29 29 30 30 30 29 28 28 28 28 28 27 26 27 28 28 28 29 29 28 29 29 28 28 26 25 25 26 27 29 30 29 27 25 27 29 28 29 33 34 34 36 36 37 38 38 37 37
24 23 24 24 24 24 25 26 27 29 30 30 29 29 30 30 31 31 31 30 30 30 30 29 29 29 28 27 29 29 30 30 30 30 31 31 31 31 30 29 28 27 27 28 30 31 30 29 25 26 30 28 26 30 34 34 35 36 36 35 35 36 36
24 24 25 26 26 27 27 28 29 31 31 30 31 31 32 32 33 32 31 31 31 31 31 31 31 31 30 29 30 31 32 31 31 31 32 33 33 33 31 30 30 29 27 27 29 29 29 28 25 24 28 29 27 29 33 32 29 30 34 33 31 33 34
26 26 27 27 29 29 29 30 31 32 31 32 32 33 33 34 33 33 32 32 32 32 32 33 33 32 31 31 32 33 33 33 32 32 33 34 34 33 31 30 29 28 27 26 27 27 27 27 25 25 27 29 27 25 29 30 25 25 30 30 29 31 31
27 28 28 30 31 31 32 33 33 33 33 33 33 33 34 33 32 31 32 32 32 32 32 32 32 31 31 32 32 33 33 33 32 33 34 35 34 32 31 30 29 28 26 24 25 25 26 25 24 25 26 26 25 24 27 31 28 26 29 31 31 35 36
28 28 30 31 32 33 34 34 34 34 32 31 32 33 33 33 32 31 30 30 30 29 29 29 28 29 29 29 30 30 30 30 31 32 33 34 34 32 31 30 29 28 27 25 23 25 25 21 20 27 31 29 32 34 33 34 32 30 32 31 28 32 38
29 30 31 32 32 33 33 34 35 33 30 30 32 34 34 34 33 30 28 27 27 27 26 26 26 27 28 29 30 30 30 30 31 31 33 34 35 34 34 32 31 30 29 27 26 27 27 21 21 30 35 35 37 39 37 36 35 30 28 25 18 18 29
30 31 32 32 32 33 33 34 34 31 30 31 33 33 34 34 33 30 27 25 25 25 25 25 26 27 28 29 30 30 30 30 30 30 31 33 34 35 35 36 36 35 32 29 27 26 27 27 29 33 37 39 40 40 38 36 34 31 28 25 19 15 26
31 32 32 32 32 32 33 34 34 31 30 32 33 32 33 34 33 30 27 25 24 25 26 26 28 29 29 29 29 29 29 30 31 31 32 34 36 36 37 38 39 39 37 34 31 28 28 32 33 32 37 43 42 39 36 31 32 36 32 27 25 26 34
31 31 32 32 32 32 34 35 34 32 30 31 33 33 34 34 31 28 26 26 26 27 27 27 27 28 29 29 28 29 29 30 31 33 34 36 37 37 38 38 39 40 40 40 37 35 36 39 38 37 41 46 45 40 37 34 35 38 36 33 34 37 40
31 31 31 32 32 32 33 35 33 30 29 31 32 33 33 32 29 27 27 27 27 27 27 27 27 28 30 30 30 30 29 28 31 33 35 36 36 37 38 38 39 40 41 42 42 41 42 44 44 44 45 47 47 45 44 44 44 44 42 38 35 35 37
30 30 30 31 30 30 33 35 33 29 29 30 31 32 32 29 28 28 28 27 27 27 27 27 28 29 30 30 31 30 28 28 31 33 33 33 34 36 36 36 38 39 40 42 43 44 45 46 47 48 48 49 50 49 49 47 43 42 40 32 24 25 30
29 29 29 29 30 30 32 35 34 29 28 29 30 32 31 29 28 27 26 26 27 28 28 28 28 28 30 31 31 30 29 30 31 32 32 31 32 33 35 36 38 38 38 40 40 40 41 40 41 41 43 45 45 43 44 39 32 32 33 25 15 14 22
29 30 30 29 30 30 31 34 33 29 27 28 30 31 30 29 27 25 25 26 27 27 27 27 27 28 28 29 29 29 29 31 32 32 32 31 31 32 33 33 33 34 35 35 34 34 35 35 35 35 37 39 40 40 39 33 27 28 28 23 16 14 19
29 30 31 30 30 29 29 32 33 31 28 28 30 31 30 28 25 24 25 26 26 26 26 26 27 26 25 26 28 29 31 34 33 33 33 32 29 26 26 27 29 29 28 27 27 30 32 35 38 38 39 41 43 45 44 41 36 32 28 23 21 20 17
28 30 31 30 30 29 30 31 32 32 29 27 28 29 29 27 25 25 25 25 25 26 26 25 24 23 22 25 28 31 33 34 33 34 33 28 21 18 22 25 26 23 22 24 27 30 32 34 36 37 37 37 39 42 43 43 40 36 33 29 25 24 19
29 29 31 31 29 29 30 30 31 31 29 27 27 28 28 27 27 26 26 26 25 24 24 23 21 22 25 28 31 31 31 32 34 35 28 20 17 20 23 23 21 21 23 25 28 30 31 31 32 32 32 32 34 36 38 39 38 35 34 32 29 27 24
29 28 30 31 29 29 29 30 30 30 29 27 26 27 28 29 29 29 29 27 24 22 22 22 23 25 28 30 29 29 31 34 35 31 23 20 23 25 23 21 21 23 23 24 25 26 27 28 27 28 30 30 31 33 33 34 35 35 33 32 33 33 30
27 27 28 29 28 28 28 29 29 28 28 27 26 27 29 30 30 30 30 26 23 22 23 24 26 29 30 30 30 32 33 32 29 25 23 26 29 27 24 23 24 24 23 23 23 23 24 26 25 26 28 29 30 31 30 30 32 32 32 33 35 38 38
25 24 25 26 27 27 28 29 29 29 28 29 29 28 28 28 29 28 27 25 24 24 26 29 30 31 31 32 33 32 30 28 26 26 27 28 27 24 23 24 24 23 23 23 22 22 23 25 25 25 27 28 29 29 29 30 31 31 31 32 34 36 37
23 23 23 24 25 27 29 30 30 30 30 30 30 28 27 27 27 25 24 25 26 28 29 30 30 31 31 31 30 26 25 26 27 28 27 25 23 21 21 21 22 22 21 20 21 21 22 24 26 27 29 30 31 32 32 32 33 34 34 32 32 33 34
22 22 23 24 26 28 30 31 31 31 31 30 28 27 26 25 25 25 25 26 27 28 28 29 30 30 29 25 21 20 21 24 25 25 25 22 20 19 19 19 20 20 19 20 21 21 22 25 28 30 31 31 32 33 33 31 29 30 30 29 28 28 30
22 22 22 24 26 29 30 30 29 29 29 27 26 25 25 25 25 25 25 26 27 27 28 28 26 24 20 18 18 20 22 23 23 23 22 19 18 18 18 18 18 19 20 21 22 23 25 27 29 30 30 30 30 30 30 27 24 25 26 26 25 24 25
24 24 24 25 27 29 28 26 26 26 25 23 23 23 24 23 23 22 22 23 24 23 21 19 17 16 17 18 21 23 23 22 21 19 18 17 18 18 17 17 18 18 19 19 21 24 25 26 27 27 27 27 28 29 28 26 23 24 25 24 21 19 21
26 25 26 27 28 27 24 23 22 20 20 21 21 21 20 18 17 17 16 15 14 11 11 12 16 18 20 21 21 21 20 19 18 17 17 17 17 17 17 18 17 17 18 19 20 21 22 23 24 24 24 25 26 27 27 25 23 23 24 24 22 20 22
26 26 26 25 23 20 19 20 20 20 20 22 23 22 19 17 16 14 11 8 8 10 14 18 19 20 19 18 17 17 17 16 16 17 18 18 17 17 18 17 16 17 19 19 19 20 21 21 21 22 23 23 23 25 25 24 24 24 25 25 23 22 22
24 24 24 22 21 20 20 20 21 21 20 22 24 23 21 19 17 12 8 8 11 15 17 17 17 16 17 16 15 15 15 16 16 17 17 18 18 18 17 17 17 18 19 19 20 20 19 19 19 21 22 21 22 24 25 25 24 24 25 25 22 19 18
22 22 21 20 20 21 21 20 20 19 20 21 21 21 20 19 15 10 9 12 16 17 16 14 15 15 15 15 15 15 16 16 17 17 17 18 18 18 18 18 19 19 19 20 20 19 18 19 20 20 20 20 21 23 23 24 24 23 23 24 19 15 17
19 19 19 20 20 20 21 21 20 19 20 20 19 20 20 16 9 6 9 14 17 16 14 14 14 14 15 15 15 16 17 16 17 17 18 18 18 19 20 21 20 20 20 20 18 17 18 20 20 19 20 21 21 21 21 22 22 22 22 21 18 13 13
19 19 20 21 21 21 21 20 20 19 19 19 19 20 18 12 8 8 13 16 16 15 14 14 14 15 15 16 16 17 17 17 17 17 18 18 19 20 21 21 20 20 20 19 17 18 19 20 19 19 20 21 21 20 20 20 20 20 19 18 17 14 12
26 25 24 23 22 21 20 20 19 19 18 19 20 20 16 12 13 17 19 18 17 15 15 15 15 15 16 17 18 18 18 18 18 19 18 19 20 21 21 21 20 20 19 18 18 19 19 19 19 19 19 21 21 20 19 19 19 19 18 17 16 15 15
29 29 28 25 22 21 20 20 19 19 20 20 19 18 16 16 18 19 18 18 17 16 15 15 16 17 17 18 18 19 19 19 19 20 19 19 20 21 21 21 21 20 19 18 19 19 19 20 20 20 20 21 22 21 20 19 19 19 18 18 17 16 16
Wind_Direction
289 294 298 296 291 290 294 296 294 292 292 292 291 290 290 290 290 288 288 288 288 286 285 284 283 283 283 283 283 283 283 283 283 283 282 281 280 279 277 277 277 276 283 287 287 285 288 291 292 291 289 289 290 290 290 290 290 292 293 294 295 296 295
290 297 298 292 288 289 292 291 289 289 291 290 290 289 289 289 288 287 287 286 285 285 284 284 283 282 282 282 281 280 280 281 280 280 279 278 278 277 276 275 275 277 280 286 287 286 287 290 290 288 287 288 288 289 291 291 290 291 292 292 292 291 291
293 298 296 288 286 287 287 287 287 289 290 289 289 288 288 287 286 286 285 284 284 284 284 283 282 281 281 280 279 278 278 278 278 278 277 277 276 275 275 274 273 273 275 281 284 285 286 289 288 285 286 288 288 288 290 290 290 290 290 289 289 289 288
294 297 292 285 283 283 283 285 288 290 291 289 288 287 287 286 285 284 283 283 283 283 283 281 279 279 280 279 278 277 277 276 276 277 276 276 275 274 274 274 270 268 270 275 280 282 283 285 287 285 286 288 289 288 288 288 288 289 288 287 288 288 287
293 293 288 281 279 280 283 287 291 292 290 288 287 286 285 285 284 283 283 283 282 282 281 280 279 278 278 278 276 275 275 275 275 276 275 274 274 272 271 271 269 267 268 271 275 280 282 283 285 285 285 285 286 287 288 287 286 286 286 286 286 285 284
291 289 283 278 278 283 287 290 292 292 290 288 287 287 286 285 284 283 283 282 282 282 281 280 279 278 277 275 273 273 273 274 274 275 274 273 273 272 271 269 268 268 268 269 272 277 280 281 282 283 283 283 282 283 285 286 286 286 284 284 284 284 284
289 287 282 279 281 286 289 292 293 292 290 288 288 288 286 286 284 283 283 283 283 283 282 281 279 277 276 275 273 273 272 272 272 272 272 272 272 272 270 268 268 267 266 267 270 273 276 279 280 279 280 281 281 280 279 279 282 285 285 284 284 284 285
288 286 283 282 284 288 290 292 293 292 290 289 289 289 287 286 285 284 284 284 284 284 283 282 280 277 277 276 275 275 274 273 272 272 272 272 271 270 269 267 267 266 265 264 267 269 271 275 277 275 274 277 277 274 273 274 275 278 283 286 287 285 285
288 286 284 285 287 289 291 292 293 292 291 291 290 289 287 286 284 283 283 282 283 283 281 280 278 276 277 278 278 278 276 273 272 269 268 270 270 268 266 264 263 263 261 260 262 264 266 269 271 269 270 271 269 265 269 275 276 274 277 282 284 284 283
286 284 284 286 288 290 291 292 293 293 292 288 286 285 284 283 282 281 281 281 280 279 279 278 277 275 276 276 275 273 271 270 269 267 266 267 268 266 263 260 259 257 256 253 253 256 259 260 261 263 264 265 266 268 270 272 272 271 274 278 280 282 282
284 284 285 287 289 290 292 293 294 293 290 286 285 286 285 284 285 284 284 282 281 280 280 279 278 277 276 275 273 272 272 270 269 268 268 268 268 267 265 262 258 255 253 249 248 253 255 253 255 261 264 265 268 270 269 267 267 267 268 270 268 275 282
283 285 287 288 289 290 291 292 293 291 288 287 289 290 289 289 290 291 290 287 284 283 283 282 280 279 276 275 274 274 274 273 271 269 269 269 268 268 267 266 263 260 257 252 250 252 251 251 254 260 264 265 266 267 265 264 265 262 259 259 256 256 270
285 287 289 289 289 290 290 291 292 291 289 289 290 291 292 294 296 296 294 290 287 287 286 284 282 280 278 277 276 275 274 275 275 275 274 273 272 270 269 269 269 269 268 264 260 257 255 257 257 258 261 264 264 263 263 261 260 259 256 252 252 253 260
288 288 288 289 288 289 289 289 291 291 289 289 289 289 292 296 298 298 295 292 291 290 289 287 284 281 280 280 281 280 279 279 279 279 278 277 275 274 273 274 274 274 274 272 267 262 261 262 260 257 260 265 265 261 258 255 255 257 255 251 254 257 261
288 288 288 289 288 288 287 289 291 290 289 290 289 291 295 298 298 298 296 295 293 291 290 289 286 283 282 283 283 283 281 279 277 276 275 274 275 275 275 275 274 274 274 273 269 264 262 263 263 262 262 264 264 261 259 257 256 258 258 258 260 262 263
287 287 287 288 288 286 286 288 291 290 290 291 291 292 297 299 299 298 297 295 294 292 290 289 287 285 284 283 283 285 282 276 273 271 270 271 272 273 274 274 275 276 275 273 271 268 265 265 266 267 267 267 265 262 260 259 257 257 258 257 256 258 259
286 286 285 285 285 284 285 289 292 291 291 292 291 293 296 298 297 296 294 292 293 292 290 289 289 288 285 283 283 284 281 277 276 276 275 273 274 275 275 276 277 279 279 279 278 276 275 273 272 273 275 274 272 268 264 259 253 251 251 247 244 249 253
287 286 285 284 284 285 285 288 291 292 291 292 292 292 295 297 295 293 292 291 290 290 288 288 289 287 282 279 280 280 278 280 282 283 282 280 278 276 275 277 282 284 285 286 286 286 286 286 285 285 286 286 284 283 280 274 265 258 251 242 235 240 248
287 286 286 285 285 285 285 287 290 293 292 292 293 293 294 295 293 291 291 289 287 286 286 287 287 284 276 275 278 280 283 286 287 286 284 283 282 281 283 288 292 291 290 292 293 292 291 291 290 290 290 289 287 286 285 282 277 270 260 249 242 241 243
286 285 286 287 286 286 286 286 290 294 294 291 291 292 294 294 293 291 289 287 285 284 284 285 284 278 275 279 283 286 288 289 288 287 288 289 293 296 296 297 298 296 298 300 299 297 296 295 293 292 291 289 286 285 283 281 276 269 259 253 249 246 241
286 285 285 287 286 286 287 288 289 293 295 292 289 292 294 294 292 290 287 284 283 281 282 284 280 277 281 286 287 288 289 289 288 291 296 304 306 301 301 306 309 306 304 302 299 299 299 296 295 293 291 287 284 281 280 279 277 271 261 253 248 248 246
286 285 285 287 287 286 288 290 291 292 294 293 289 290 294 293 290 289 287 285 283 283 283 284 282 283 288 291 290 292 292 291 293 298 308 315 312 311 316 320 315 308 305 304 301 301 298 296 296 295 292 289 284 281 281 279 277 272 264 256 250 248 249
286 285 284 286 287 287 288 291 293 293 294 294 291 288 290 293 292 292 292 291 289 288 288 288 289 291 294 295 295 295 296 296 301 311 318 317 317 322 324 318 311 310 311 307 304 300 297 295 295 293 291 290 288 286 286 283 281 276 269 263 258 254 253
284 283 282 285 287 288 289 291 293 294 294 294 292 288 287 290 292 295 297 298 296 294 294 294 295 296 296 297 298 299 300 303 308 314 317 317 320 320 316 311 311 312 310 306 303 300 295 293 294 293 292 292 291 290 288 285 284 282 278 272 268 263 260
282 281 280 282 283 286 289 291 292 292 292 292 292 289 286 287 289 291 293 293 291 292 293 293 294 295 297 299 301 302 301 303 306 310 312 314 315 312 309 309 309 307 304 301 297 295 292 292 295 295 293 292 291 288 286 284 283 283 281 277 273 268 264
280 279 279 280 280 282 286 288 288 288 289 291 291 289 287 287 286 286 285 283 282 285 287 289 290 293 296 296 295 295 298 302 305 308 309 309 310 310 308 307 304 302 300 296 293 293 293 294 297 297 295 293 291 286 283 284 284 282 279 276 270 263 257
277 276 274 276 279 280 281 283 283 283 286 289 288 287 287 286 285 285 283 281 281 283 285 284 285 285 284 284 286 293 301 306 308 309 310 310 311 311 309 305 302 300 298 296 295 295 295 295 298 298 296 294 291 286 285 287 285 280 277 274 265 253 245
274 273 273 273 275 278 278 278 277 279 285 290 288 284 283 282 282 284 283 282 284 285 282 281 283 286 290 296 301 304 308 310 313 315 315 313 313 313 310 306 303 301 300 299 299 299 299 300 300 298 298 297 295 292 294 295 291 283 279 278 269 248 237
274 274 275 273 272 272 272 273 277 286 292 292 287 283 284 287 291 294 293 291 294 296 298 304 309 311 312 312 313 313 314 316 318 318 315 313 313 313 312 309 306 305 305 305 304 301 301 301 300 300 302 303 301 299 300 300 297 291 288 285 275 252 239
278 281 284 284 285 285 281 281 291 299 299 295 293 293 298 305 306 308 315 322 320 318 320 322 320 317 316 317 315 314 314 316 317 315 313 313 313 312 313 311 308 308 310 308 306 303 300 300 301 305 307 306 304 304 305 304 300 296 292 286 271 250 238
286 290 294 298 303 305 301 297 300 302 300 299 300 302 309 314 311 315 335 342 329 325 326 327 325 321 320 320 318 314 313 313 313 312 311 311 311 311 312 310 308 311 312 309 306 302 299 299 303 306 307 308 308 307 306 305 304 298 293 288 273 245 230
295 298 301 304 306 307 306 304 303 302 302 303 304 306 311 313 312 321 336 331 327 331 334 334 330 325 323 323 319 316 315 315 312 310 308 309 309 309 309 309 309 311 311 308 305 301 300 304 307 307 308 310 310 309 305 305 305 302 300 301 290 252 228
297 301 305 308 308 308 307 306 306 306 306 308 309 309 310 310 311 329 334 329 332 337 338 334 329 321 317 317 316 315 317 315 311 310 308 306 304 304 306 306 307 309 309 305 301 300 303 305 305 306 310 311 310 308 305 302 304 303 302 307 307 282 248
301 302 305 308 308 307 306 306 307 307 307 308 307 305 303 298 295 307 320 331 340 341 331 324 319 313 310 310 310 311 313 312 311 311 309 305 304 304 305 306 307 309 308 303 301 303 305 305 304 307 311 312 310 308 304 299 301 303 302 304 309 307 293
304 305 307 307 306 305 305 304 305 305 304 303 300 299 301 308 315 319 323 330 334 331 321 314 308 304 305 306 306 308 309 308 309 311 308 306 307 306 306 307 308 308 305 302 303 306 306 304 305 308 311 311 308 306 303 300 299 302 303 302 303 306 308
300 304 307 306 304 304 304 303 303 303 302 302 301 304 316 326 327 323 320 318 318 317 313 308 304 302 303 304 304 306 306 306 308 309 307 306 307 306 306 306 305 305 306 306 306 307 306 306 307 309 314 314 309 304 303 301 301 303 304 305 307 306 303
Height
843 842 841 840 839 838 837 836 835 834 834 833 831 830 829 828 827 826 824 823 822 822 821 819 818 817 817 816 815 814 813 813 812 811 810 810 808 807 806 805 803 797 784 778 782 780 776 778 778 774 774 771 767 767 767 766 764 761 760 758 756 754 753
840 839 838 837 836 835 834 833 833 832 831 829 828 827 825 825 824 822 821 820 818 818 817 816 815 813 813 813 811 810 810 809 809 808 807 806 805 803 802 802 800 796 787 777 776 777 774 775 776 771 770 769 765 763 763 762 760 758 756 755 753 751 749
837 836 835 834 833 832 831 830 829 828 828 826 824 823 822 821 820 819 817 816 815 814 813 812 811 810 809 809 807 806 806 806 805 804 803 801 802 800 797 798 796 793 788 779 773 773 772 771 772 768 766 766 763 760 760 758 756 755 753 751 750 748 746
833 833 832 831 830 829 828 827 826 825 824 822 821 819 818 817 816 815 813 812 811 810 809 808 807 806 805 805 804 802 802 802 801 800 800 797 797 796 793 793 792 789 786 780 772 769 769 768 768 765 763 763 761 757 757 755 752 751 750 747 746 745 742
830 829 828 827 826 825 825 824 823 821 820 818 817 816 814 813 812 810 809 808 807 806 805 804 803 802 802 801 800 799 798 798 797 796 795 794 792 792 790 788 787 785 783 779 771 766 765 766 766 763 760 760 759 754 752 751 749 748 746 743 742 741 739
826 825 825 824 823 822 821 820 819 817 816 814 813 812 810 809 807 806 805 804 803 802 801 800 798 797 798 797 795 794 793 793 793 791 790 789 787 786 785 784 783 781 779 776 771 765 763 762 763 761 756 756 757 753 749 747 744 743 742 740 739 737 735
823 822 821 820 819 818 817 816 815 813 811 810 809 807 806 804 803 801 800 799 798 797 796 795 794 793 793 792 791 789 789 788 788 787 785 784 782 781 781 779 778 777 775 773 769 764 761 759 760 759 754 751 753 751 747 745 742 739 737 737 736 734 732
819 818 817 816 815 814 813 812 810 808 807 806 804 802 801 799 798 797 795 794 793 792 791 790 789 788 787 787 786 785 784 783 782 781 779 778 777 777 776 775 773 772 771 769 765 762 759 756 756 755 751 748 749 747 743 742 741 738 734 733 733 731 729
815 814 813 812 811 810 809 807 805 804 802 801 799 797 795 794 793 792 791 790 788 787 786 785 784 783 783 782 781 780 779 778 777 777 774 772 772 772 771 770 768 767 766 764 761 757 755 754 752 750 748 745 744 742 739 738 739 736 733 731 729 726 726
812 810 809 808 807 805 804 802 801 799 798 797 795 792 791 790 789 788 786 785 784 782 781 780 779 778 778 777 776 775 774 773 773 772 770 768 767 766 765 764 762 761 760 758 755 752 750 749 747 744 743 740 738 738 737 735 734 732 729 730 727 721 719
807 806 805 804 802 801 799 797 796 795 794 792 790 788 787 786 784 784 783 781 779 778 777 776 775 774 773 772 771 770 769 768 767 766 765 763 762 761 760 758 756 754 753 751 749 746 745 744 741 738 737 736 733 732 732 730 729 728 726 726 724 719 714
803 802 801 799 798 796 795 793 792 791 790 787 785 783 782 781 780 779 778 777 775 774 772 771 770 769 768 767 766 765 763 762 761 761 759 758 756 755 754 752 749 747 746 745 743 740 738 737 735 732 731 730 728 726 725 725 724 723 721 720 720 716 710
799 797 796 795 793 792 790 788 787 787 785 783 780 778 777 777 776 775 773 772 771 769 768 766 765 763 762 761 761 760 759 758 756 755 753 751 750 748 747 745 742 741 740 739 738 735 731 730 729 727 723 721 721 720 720 720 718 716 714 714 713 710 705
795 793 792 791 789 787 785 784 783 782 781 779 776 774 773 773 771 770 769 767 766 765 763 762 760 758 757 756 755 755 754 753 751 749 747 745 743 741 740 738 736 734 733 732 732 729 725 723 723 720 716 714 714 715 714 713 710 707 707 706 705 703 701
790 789 787 786 785 783 781 779 779 779 777 775 772 770 769 769 767 765 764 762 761 760 758 757 756 754 752 751 750 749 749 748 746 744 741 739 737 735 733 732 730 728 726 724 722 720 717 715 714 712 710 708 708 707 705 704 703 701 700 701 700 700 698
786 784 783 782 781 779 776 774 775 775 773 770 768 766 766 765 763 761 759 758 757 755 754 753 752 750 748 746 745 744 744 743 740 738 736 734 732 730 727 725 723 721 719 716 713 711 709 707 706 704 702 700 699 698 697 697 697 696 696 697 697 695 692
782 780 779 778 777 775 773 770 770 770 769 766 764 762 762 761 759 757 756 754 753 751 750 748 747 746 744 742 740 740 739 737 735 734 732 729 727 725 722 719 717 715 712 709 706 704 702 701 700 698 696 694 693 692 692 693 692 691 691 691 690 689 686
778 776 775 774 772 771 769 766 766 766 765 763 760 758 758 757 755 754 752 750 749 747 745 744 743 742 740 738 736 735 733 731 730 729 727 724 722 719 716 713 712 709 706 703 701 698 696 695 694 694 692 690 688 687 688 689 687 686 686 684 683 682 680
774 772 770 769 768 767 766 763 761 761 761 759 756 754 754 753 751 750 748 746 744 743 741 740 738 737 736 734 733 731 728 726 725 723 721 719 717 714 711 709 708 705 702 699 696 694 692 690 689 688 687 686 683 681 681 681 681 681 681 678 676 676 675
770 768 766 765 764 763 762 760 758 757 756 755 753 750 749 749 748 745 744 742 740 738 737 735 734 733 732 731 729 727 724 722 720 718 716 714 712 710 708 706 704 701 698 696 693 691 689 687 685 684 683 681 679 676 674 673 673 674 673 672 670 670 670
766 764 761 760 760 758 757 756 754 753 752 751 749 746 745 745 744 741 740 738 736 734 733 731 730 729 728 727 725 722 720 717 714 713 712 710 709 707 705 702 699 697 695 693 690 687 685 683 681 679 678 676 674 671 669 667 666 666 666 666 665 663 662
762 760 757 756 755 754 753 752 750 749 748 747 746 743 741 740 739 737 735 733 731 730 729 727 726 725 723 722 719 717 715 712 710 708 707 706 704 702 700 698 696 694 692 690 687 684 681 679 677 675 673 671 669 666 665 663 660 659 659 659 658 657 655
758 756 754 752 750 749 749 747 746 745 744 742 742 740 737 735 733 732 731 729 727 726 724 723 721 720 718 717 714 712 710 708 706 704 703 701 699 697 695 694 692 690 688 686 684 681 678 676 674 673 669 667 664 662 660 658 655 653 652 651 650 649 648
754 753 751 748 746 745 744 743 741 740 739 738 737 736 734 732 729 727 726 725 723 721 720 718 716 714 713 711 709 707 706 703 701 700 699 697 696 694 692 691 689 687 685 683 680 679 676 673 671 670 666 663 661 658 656 654 651 648 646 645 643 641 640
750 749 748 745 743 741 739 738 737 735 734 733 732 731 730 728 726 724 723 721 719 717 716 714 712 710 708 707 706 704 701 699 698 698 696 695 694 692 690 689 687 685 683 681 678 676 673 670 668 666 663 660 658 655 652 650 647 643 641 639 637 635 634
747 746 744 742 739 737 734 733 732 730 729 729 727 726 724 723 722 721 719 718 716 714 712 710 708 707 705 704 703 701 699 698 697 695 694 692 691 690 688 687 685 683 681 679 676 673 670 667 664 662 659 657 654 650 647 645 643 639 635 633 632 630 628
743 742 740 738 735 732 730 729 727 726 725 724 723 721 719 718 717 716 714 713 711 709 707 705 705 704 703 701 700 699 697 696 694 693 691 690 689 687 686 685 683 681 679 676 673 671 667 664 662 659 656 653 649 645 642 642 640 635 631 628 627 625 622
739 737 736 734 731 728 725 724 723 722 721 719 718 716 714 713 712 711 709 708 706 704 703 702 701 701 699 698 697 695 694 693 691 690 689 687 686 685 683 682 680 678 676 674 671 668 665 662 659 656 653 649 645 641 638 637 635 631 627 624 623 620 617
734 733 731 729 726 724 722 719 718 718 717 715 714 713 711 710 709 707 706 704 702 701 700 699 698 697 696 695 693 692 691 690 688 688 686 685 684 682 681 679 677 675 673 671 669 666 663 660 657 653 650 647 642 638 635 633 631 628 624 621 619 615 611
731 729 727 725 722 721 719 717 715 715 713 712 710 710 708 707 705 704 703 701 699 698 697 696 696 694 693 693 691 690 689 688 686 685 684 682 681 680 678 677 675 673 671 669 666 664 661 658 655 652 648 645 641 636 632 630 628 625 621 618 613 608 605
728 726 724 722 720 718 717 715 713 712 711 709 707 706 704 703 702 701 699 697 696 696 695 694 693 692 691 691 689 688 687 686 685 683 681 680 679 677 676 674 672 671 669 666 664 662 659 656 654 651 647 644 640 636 632 629 626 623 619 614 607 602 600
724 723 721 720 718 716 714 713 711 710 708 706 704 703 701 700 699 698 696 694 693 694 693 692 691 690 689 689 687 686 685 684 683 681 680 678 676 675 673 672 670 668 667 664 662 659 657 655 652 649 647 644 641 637 633 628 625 621 616 610 603 598 596
721 720 718 717 716 714 712 710 709 707 705 704 702 700 699 698 697 696 695 693 692 691 691 690 690 689 687 687 685 684 683 682 681 679 678 676 675 673 671 670 668 666 664 662 660 658 655 653 650 648 645 642 640 637 633 629 624 620 615 610 604 598 595
716 716 715 713 712 711 709 707 706 704 703 701 700 698 697 695 694 693 692 691 690 689 689 688 687 686 685 684 683 682 681 680 678 677 676 674 673 671 669 667 666 664 662 659 657 655 653 651 649 646 644 641 638 636 632 628 624 620 616 610 605 600 595
710 711 711 710 708 707 706 704 703 702 700 699 697 695 693 691 690 689 688 688 687 687 687 686 685 684 683 682 681 679 679 677 676 675 673 672 670 668 666 665 663 661 659 657 655 653 651 649 646 644 642 640 637 634 631 627 623 619 615 610 605 601 597
706 706 706 706 705 704 702 701 700 698 697 695 694 692 690 688 687 687 686 685 685 685 684 683 682 681 680 679 678 677 676 675 673 672 671 669 668 666 664 662 660 658 657 655 652 650 648 646 644 642 640 638 634 631 628 625 621 617 613 609 605 601 597